Greenwood, Nova Scotia

9:10 AM ADT on June 22, 2017 (GMT -0300)
Greenwood

Weather History for CYZX - October, 2013

Change the Weather History Date:

Wednesday, October 9, 2013

  Actual Average Record
Temperature  
Mean Temperature 48 °F -  
Max Temperature 60 °F 54 °F 122 °F (1996)
Min Temperature 35 °F 35 °F 30 °F (1997)
Degree Days  
Heating Degree Days 18    
Moisture  
Dew Point 40 °F    
Average Humidity 77    
Maximum Humidity 100    
Minimum Humidity 32    
Precipitation  
Precipitation 0.00 in 0.13 in - ()
Sea Level Pressure  
Sea Level Pressure 30.39 in    
Wind  
Wind Speed 2 mph ()    
Max Wind Speed 7 mph    
Max Gust Speed -    
Visibility 15.0 miles    
Events Fog    
Averages and records for this station are not official NWS values.
T = Trace of Precipitation, MM = Missing Value Source: Averaged Metar Reports

Daily Weather History Graph

Daily Weather History Graph

Search for Another Location

Airport or City:

Trip Planner

Search our weather history database for the weather conditions in past years. The results will help you decide how hot, cold, wet, or windy it might be!

Date:

Astronomy

Oct. 09, 2013 Rise Set
Actual Time 7:27 AM ADT 6:45 PM ADT
Civil Twilight 6:58 AM ADT 7:14 PM ADT
Nautical Twilight 6:24 AM ADT 7:48 PM ADT
Astronomical Twilight 5:50 AM ADT 8:22 PM ADT
Moon 12:29 PM ADT (10/9) 10:05 PM ADT (10/9)
Length of Visible Light 12h 15m
Length of Day
11h 17m
Waxing Crescent, 25% of the Moon is Illuminated
Oct 9
Waxing Crescent
Oct 11
First Quarter
Oct 18
Full
Oct 26
Last Quarter
Nov 3
New

Hourly Weather History & Observations

Time (ADT) Temp. Dew Point Humidity Pressure Visibility Wind Dir Wind Speed Gust Speed Precip Events Conditions
12:00 AM 44.6 °F 42.8 °F 93% 30.31 in 15.0 mi SSW 2.3 mph - N/A   Clear
1:00 AM 41.0 °F 41.0 °F 100% 30.33 in 15.0 mi Calm Calm - N/A   Clear
2:00 AM 41.0 °F 39.2 °F 93% 30.35 in 15.0 mi WNW 2.3 mph - N/A   Clear
3:00 AM 39 °F 38 °F 96% 30.36 in 15 mi Calm Calm - -  
3:00 AM 39.2 °F 39.2 °F 100% 30.35 in 15.0 mi Calm Calm - N/A   Clear
4:00 AM 39.2 °F 37.4 °F 93% 30.36 in 15.0 mi South 2.3 mph - N/A   Clear
5:00 AM 37.4 °F 37.4 °F 100% 30.38 in 15.0 mi West 2.3 mph - N/A   Clear
6:00 AM 35.6 °F 35.6 °F 100% 30.39 in 15.0 mi West 2.3 mph - N/A   Clear
7:00 AM 35.6 °F 35.6 °F 100% 30.41 in 15.0 mi Calm Calm - N/A   Clear
8:00 AM 35.6 °F 35.6 °F 100% 30.44 in 15.0 mi West 2.3 mph - N/A Fog Patches of Fog
9:00 AM 40 °F 38 °F 89% 30.45 in 15 mi Calm Calm - -  
9:00 AM 39.2 °F 37.4 °F 93% 30.45 in 15.0 mi Calm Calm - N/A   Clear
10:00 AM 46.4 °F 42.8 °F 87% 30.45 in 15.0 mi Calm Calm - N/A   Clear
11:00 AM 55.4 °F 42.8 °F 63% 30.44 in 15.0 mi East 2.3 mph - N/A   Clear
12:00 PM 57.2 °F 39.2 °F 51% 30.42 in 15.0 mi SE 3.5 mph - N/A   Clear
1:00 PM 59.0 °F 39.2 °F 48% 30.41 in 15.0 mi West 3.5 mph - N/A   Clear
2:00 PM 60.8 °F 37.4 °F 42% 30.40 in 15.0 mi NNW 5.8 mph - N/A   Clear
3:00 PM 60 °F 38 °F 32% 30.40 in 15 mi NNW 6.9 mph - -  
3:00 PM 60.8 °F 37.4 °F 42% 30.39 in 15.0 mi WNW 6.9 mph - N/A   Clear
4:00 PM 59.0 °F 39.2 °F 48% 30.38 in 15.0 mi North 5.8 mph - N/A   Clear
5:00 PM 60.8 °F 41.0 °F 48% 30.38 in 15.0 mi WSW 6.9 mph - N/A   Clear
6:00 PM 59.0 °F 41.0 °F 51% 30.37 in 15.0 mi West 5.8 mph - N/A   Clear
7:00 PM 53.6 °F 42.8 °F 67% 30.38 in 15.0 mi West 3.5 mph - N/A   Partly Cloudy
8:00 PM 50.0 °F 42.8 °F 76% 30.38 in 15.0 mi SW 3.5 mph - N/A   Clear
9:00 PM 46 °F 43 °F 84% 30.39 in 15 mi Calm Calm - -  
9:00 PM 46.4 °F 42.8 °F 87% 30.39 in 15.0 mi Calm Calm - N/A   Clear
10:00 PM 44.6 °F 41.0 °F 87% 30.39 in 15.0 mi Calm Calm - N/A   Clear
11:00 PM 42.8 °F 41.0 °F 93% 30.38 in 15.0 mi Calm Calm - N/A   Clear